Lincoln, IL

6:31 PM CDT on July 20, 2017 (GMT -0500)
Lincoln

Weather History for KAAA - December, 2012

Change the Weather History Date:

Friday, December 14, 2012

  Actual Average (KSPI) Record (KSPI)
Temperature  
Mean Temperature 40 °F -  
Max Temperature 52 °F 39 °F 68 °F (1975)
Min Temperature 29 °F 23 °F -7 °F (1901)
Degree Days  
Heating Degree Days 24    
Moisture  
Dew Point 34 °F    
Average Humidity 77    
Maximum Humidity 93    
Minimum Humidity 53    
Precipitation  
Precipitation 0.01 in - - ()
Sea Level Pressure  
Sea Level Pressure 30.12 in    
Wind  
Wind Speed 5 mph (SSE)    
Max Wind Speed 13 mph    
Max Gust Speed -    
Visibility 10 miles    
Events Rain    
Averages and records for this station are not official NWS values.
T = Trace of Precipitation, MM = Missing Value Source: NWS Daily Summary

Daily Weather History Graph

Daily Weather History Graph

Search for Another Location

Airport or City:

Trip Planner

Search our weather history database for the weather conditions in past years. The results will help you decide how hot, cold, wet, or windy it might be!

Date:

Astronomy

Dec. 14, 2012 Rise Set
Actual Time 7:12 AM CST 4:32 PM CST
Civil Twilight 6:41 AM CST 5:02 PM CST
Nautical Twilight 6:07 AM CST 5:37 PM CST
Astronomical Twilight 5:34 AM CST 6:10 PM CST
Moon 8:16 AM CST (12/14) 6:24 PM CST (12/14)
Length of Visible Light 10h 21m
Length of Day
9h 20m
Waxing Crescent, 3% of the Moon is Illuminated
Dec 14
Waxing Crescent
Dec 19
First Quarter
Dec 28
Full
Jan 4
Last Quarter
Jan 11
New

Hourly Weather History & Observations

Time (CST) Temp. Windchill Dew Point Humidity Pressure Visibility Wind Dir Wind Speed Gust Speed Precip Events Conditions
12:15 AM 35.1 °F 29.3 °F 29.7 °F 81% 30.18 in 10.0 mi South 6.9 mph - N/A   Clear
12:35 AM 35.1 °F 29.3 °F 29.7 °F 81% 30.18 in 10.0 mi South 6.9 mph - N/A   Clear
12:55 AM 34.7 °F 30.6 °F 29.8 °F 82% 30.18 in 10.0 mi South 4.6 mph - N/A   Clear
1:15 AM 34.7 °F 31.8 °F 30.0 °F 83% 30.19 in 10.0 mi South 3.5 mph - N/A   Clear
1:35 AM 34.2 °F 31.2 °F 29.8 °F 84% 30.19 in 10.0 mi South 3.5 mph - N/A   Clear
1:55 AM 34.2 °F 29.0 °F 29.7 °F 84% 30.19 in 10.0 mi South 5.8 mph - N/A   Clear
2:15 AM 32.0 °F 28.7 °F 28.4 °F 87% 30.19 in 10.0 mi South 3.5 mph - N/A   Clear
2:35 AM 31.6 °F 28.3 °F 29.1 °F 90% 30.19 in 10.0 mi SSE 3.5 mph - N/A   Clear
2:55 AM 32.0 °F 28.7 °F 29.1 °F 89% 30.19 in 10.0 mi SSE 3.5 mph - N/A   Clear
3:15 AM 31.8 °F 28.5 °F 28.4 °F 87% 30.19 in 10.0 mi SSE 3.5 mph - N/A   Clear
3:35 AM 30.9 °F 27.5 °F 28.2 °F 90% 30.19 in 10.0 mi SSE 3.5 mph - N/A   Clear
3:55 AM 31.1 °F 27.7 °F 28.9 °F 92% 30.18 in 10.0 mi SSE 3.5 mph - N/A   Clear
4:15 AM 30.9 °F 26.2 °F 28.8 °F 92% 30.18 in 10.0 mi SSE 4.6 mph - N/A   Clear
4:35 AM 31.6 °F 26.0 °F 29.1 °F 90% 30.18 in 10.0 mi South 5.8 mph - N/A   Clear
4:55 AM 32.0 °F 28.7 °F 28.4 °F 87% 30.18 in 10.0 mi SSE 3.5 mph - N/A   Clear
5:15 AM 31.1 °F 26.4 °F 28.2 °F 89% 30.18 in 10.0 mi South 4.6 mph - N/A   Clear
5:35 AM 30.2 °F 26.7 °F 27.5 °F 90% 30.18 in 10.0 mi SSE 3.5 mph - N/A   Clear
5:55 AM 30.6 °F 27.1 °F 27.9 °F 90% 30.18 in 10.0 mi SSE 3.5 mph - N/A   Clear
6:15 AM 30.0 °F 26.5 °F 27.9 °F 92% 30.18 in 10.0 mi SSE 3.5 mph - N/A   Clear
6:35 AM 30.4 °F 25.6 °F 28.2 °F 92% 30.18 in 10.0 mi South 4.6 mph - N/A   Clear
6:55 AM 29.3 °F 25.6 °F 27.1 °F 92% 30.17 in 10.0 mi SSE 3.5 mph - N/A   Clear
7:15 AM 29.7 °F - 27.5 °F 92% 30.18 in 10.0 mi Calm Calm - N/A   Clear
7:35 AM 29.1 °F - 27.3 °F 93% 30.19 in 10.0 mi Calm Calm - N/A   Clear
7:55 AM 30.2 °F 26.7 °F 28.4 °F 93% 30.19 in 10.0 mi SSE 3.5 mph - N/A   Clear
8:15 AM 32.0 °F - 29.8 °F 92% 30.20 in 10.0 mi Calm Calm - N/A   Clear
8:35 AM 34.2 °F - 31.3 °F 89% 30.20 in 10.0 mi Calm Calm - N/A   Clear
8:55 AM 36.7 °F 32.9 °F 31.6 °F 82% 30.19 in 10.0 mi SSE 4.6 mph - N/A   Clear
9:15 AM 37.8 °F 33.3 °F 31.3 °F 77% 30.19 in 10.0 mi South 5.8 mph - N/A   Clear
9:35 AM 38.5 °F 34.1 °F 31.8 °F 77% 30.21 in 10.0 mi South 5.8 mph - N/A   Clear
9:55 AM 40.1 °F 35.3 °F 32.0 °F 73% 30.21 in 10.0 mi South 6.9 mph - N/A   Clear
10:15 AM 41.5 °F 37.8 °F 32.0 °F 69% 30.20 in 10.0 mi South 5.8 mph - N/A   Clear
10:35 AM 43.3 °F 41.7 °F 32.7 °F 66% 30.19 in 10.0 mi SSE 3.5 mph - N/A   Clear
10:55 AM 44.4 °F 42.0 °F 32.7 °F 64% 30.17 in 10.0 mi South 4.6 mph - N/A   Clear
11:15 AM 46.0 °F 43.1 °F 33.1 °F 61% 30.17 in 10.0 mi South 5.8 mph - N/A   Clear
11:35 AM 47.3 °F - 33.1 °F 58% 30.16 in 10.0 mi South 4.6 mph - N/A   Clear
11:55 AM 48.4 °F - 34.0 °F 58% 30.15 in 10.0 mi SSE 3.5 mph - N/A   Clear
12:15 PM 50.0 °F - 34.3 °F 55% 30.14 in 10.0 mi South 3.5 mph - N/A   Clear
12:35 PM 50.5 °F - 34.2 °F 53% 30.13 in 10.0 mi South 4.6 mph - N/A   Clear
12:55 PM 51.4 °F - 35.2 °F 54% 30.12 in 10.0 mi South 4.6 mph - N/A   Clear
1:15 PM 52.0 °F - 36.5 °F 56% 30.12 in 10.0 mi South 3.5 mph - N/A   Clear
1:35 PM 52.0 °F - 36.3 °F 55% 30.10 in 10.0 mi South 5.8 mph - N/A   Clear
1:55 PM 52.9 °F - 37.8 °F 56% 30.10 in 10.0 mi SSE 6.9 mph - N/A   Clear
2:15 PM 52.7 °F - 38.5 °F 58% 30.09 in 10.0 mi SE 4.6 mph - N/A   Clear
2:35 PM 52.5 °F - 39.0 °F 60% 30.09 in 10.0 mi SSE 4.6 mph - N/A   Clear
2:55 PM 51.6 °F - 41.0 °F 67% 30.08 in 10.0 mi SSE 4.6 mph - N/A   Clear
3:15 PM 50.7 °F - 40.3 °F 67% 30.09 in 10.0 mi SSE 5.8 mph - N/A   Clear
3:35 PM 49.8 °F - 40.3 °F 70% 30.08 in 10.0 mi SSE 6.9 mph - N/A   Clear
3:55 PM 49.1 °F - 41.0 °F 74% 30.07 in 10.0 mi SE 6.9 mph - N/A   Clear
4:15 PM 47.5 °F - 40.5 °F 77% 30.07 in 10.0 mi SSE 6.9 mph - N/A   Clear
4:35 PM 47.1 °F - 40.1 °F 77% 30.08 in 10.0 mi SSE 8.1 mph - N/A   Clear
4:55 PM 47.3 °F - 39.4 °F 74% 30.07 in 10.0 mi SE 6.9 mph - N/A   Clear
5:15 PM 46.8 °F - 38.7 °F 73% 30.06 in 10.0 mi SE 5.8 mph - N/A   Clear
5:35 PM 45.3 °F 42.3 °F 38.7 °F 78% 30.07 in 10.0 mi SSE 5.8 mph - N/A   Clear
5:55 PM 44.8 °F 41.6 °F 37.9 °F 77% 30.07 in 10.0 mi SSE 5.8 mph - N/A   Clear
6:15 PM 44.1 °F 40.8 °F 37.8 °F 78% 30.07 in 10.0 mi SSE 5.8 mph - N/A   Clear
6:35 PM 44.6 °F 42.2 °F 38.3 °F 79% 30.06 in 10.0 mi SSE 4.6 mph - N/A   Clear
6:55 PM 44.2 °F 40.3 °F 38.3 °F 80% 30.06 in 10.0 mi SSE 6.9 mph - N/A   Clear
7:15 PM 44.6 °F 42.2 °F 37.8 °F 77% 30.06 in 10.0 mi SE 4.6 mph - N/A   Clear
7:35 PM 44.6 °F - 37.6 °F 76% 30.06 in 10.0 mi Calm Calm - N/A   Clear
7:55 PM 43.9 °F 41.3 °F 37.6 °F 78% 30.06 in 10.0 mi SSE 4.6 mph - N/A   Clear
8:15 PM 43.9 °F 42.3 °F 37.2 °F 77% 30.06 in 10.0 mi South 3.5 mph - N/A   Clear
8:35 PM 43.7 °F 41.1 °F 36.9 °F 77% 30.05 in 10.0 mi SSE 4.6 mph - N/A   Clear
8:55 PM 43.5 °F 40.1 °F 36.9 °F 77% 30.03 in 10.0 mi SE 5.8 mph - N/A   Scattered Clouds
9:15 PM 43.9 °F 40.5 °F 36.0 °F 74% 30.03 in 10.0 mi SSE 5.8 mph - N/A   Clear
9:35 PM 43.7 °F 39.7 °F 35.6 °F 73% 30.02 in 10.0 mi SSE 6.9 mph - N/A   Scattered Clouds
9:55 PM 43.7 °F 40.3 °F 35.8 °F 74% 30.02 in 10.0 mi SSE 5.8 mph - N/A   Mostly Cloudy
10:15 PM 43.7 °F 39.7 °F 36.0 °F 74% 30.02 in 10.0 mi SSE 6.9 mph - N/A   Mostly Cloudy
10:35 PM 43.3 °F 39.2 °F 36.9 °F 78% 30.01 in 7.0 mi SSE 6.9 mph - N/A Rain Light Rain
10:55 PM 44.4 °F 39.5 °F 35.8 °F 72% 30.01 in 10.0 mi South 9.2 mph - 0.01 in   Overcast
11:15 PM 45.0 °F 40.1 °F 35.6 °F 70% 30.01 in 10.0 mi South 9.2 mph - N/A   Overcast
11:35 PM 45.0 °F 39.7 °F 35.6 °F 70% 30.00 in 10.0 mi South 10.4 mph - N/A Rain Light Rain
11:55 PM 44.6 °F 38.4 °F 35.8 °F 71% 30.00 in 10.0 mi South 12.7 mph - N/A   Light Drizzle